SCP
0 0 0 0 0 0 0 0 0 0 0 0 0 0 0 0 0 0 0 0 0 0 0 0 0 0 0 0 0 0 0 0 0 0 0 0 0 0
0 0 0 0 0 0 0 0 0 0 0 0 0 0 0 0 0 0 0 0 0 0 0 0 0 0 0 0 0 0 0 0 0 0 0 0 0 0
0 0 0 0 0 0 0 0 0 0 0 0 0 0 0 0 0 0 0 0 0 0 0 0 0 0 0 0 0 0 0 0 0 0 0 0 0 0
0 0 0 0 0 0 0 0 0 0 0 0 0 0 0 0 0 0 0 0 0 0 0 0 0 0 0 0 0 0 0 0 0 0 0 0 0 0
0 0 0 0 0 0 0 0 0 0 0 0 0 0 0 0 0 0 0 0 0 0 0 0 0 0 0 0 0 0 0 0 0 0 0 0 0 0
0 0 0 0 0 0 0 0 0 0 0 0 0 0 0 0 0 0 0 0 0 0 0 0 0 0 0 0 0 0 0 0 0 0 0 0 0 0
0 0 0 0 0 0 0 0 0 0 0 0 0 0 0 0 0 0 0 0 0 0 0 0 0 0 0 0 0 0 0 0 0 0 0 0 0 0
0 0 0 0 0 0 0 0 0 0 0 0 0 0 0 0 0 0 0 0 0 0 0 0 0 0 0 0 0 0 0 0 0 0 0 0 0 0
0 0 0 0 0 0 0 0 0 0 0 0 0 0 0 0 0 0 0 -0 -0 -0 0 0 0 0 0 0 0 0 0 0 0 0 0 0 0 0
0 0 0 0 0 0 0 0 0 0 0 0 0 0 0 0 0 0 -0 -0 -0 -0 -0 0 0 0 0 0 0 0 0 0 0 0 0 0 0 0
0 0 0 0 0 0 0 0 0 0 0 0 0 0 0 0 0 -0 -0 -0 -0 -0 -0 -0 0 -0 -0 0 0 0 0 0 0 0 0 0 0 0
0 0 0 0 0 0 0 0 0 0 0 0 0 0 0 -0 0 -0 -0 0 -0 -0 0 0 -0 -0 -0 0 0 0 0 -0 -0 -0 0 0 0 0
0 0 0 0 0 0 0 0 0 0 0 0 0 0 -0 0 -0 -0 -0 -0 -0 -0 -0 -0 -0 -0 -0 0 0 0 0 0 0 0 0 0 0 0
0 0 0 0 0 0 0 0 0 0 0 0 0 -0 -0 -0 -0 -0 -0 -0 -0 0 -0 -0 -0 -0 0 0 0 -0 0 0 0 0 0 0 0 0
0 0 0 0 0 0 0 0 0 0 0 0 0 0 -0 -0 -0 -0 0 0 0 -0 -0 0 -0 0 0 0 0 0 0 0 0 0 0 0 0 0
0 0 0 0 0 0 0 0 0 0 0 0 0 0 -0 -0 -0 -0 0 0 0 -0 -0 -0 -0 0 -0 -0 -0 0 0 -0 -0 -0 -0 -0 -0 -0
0 0 0 0 0 0 0 0 0 0 0 0 0 0 -0 -0 -0 0 0 0 0 0 -0 0 -0 -0 -0 -0 0 0 -0 0 0 0 0 0 0 0
0 0 0 0 0 0 -0 0 0 0 0 0 0 0 0 0 0 0 0 -0 -0 -0 -0 -0 -0 -0 0 0 0 0 0 0 0 0 0 0 0 0
0 0 0 0 0 0 0 0 0 0 0 0 0 0 0 0 -0 -0 -0 0 0 0 0 0 0 0 0 0 0 0 0 0 0 0 0 0 0 0
0 0 0 0 0 0 0 0 0 0 0 0 0 0 0 0 0 -0 0 0 0 0 0 0 0 0 0 0 0 0 0 0 0 0 0 0 0 0
0 0 0 0 0 0 0 0 0 0 0 0 0 0 0 0 0 0 0 0 0 0 0 0 0 0 0 -0 -0 0 0 0 0 0 0 0 0 0
0 0 0 0 0 0 0 0 0 0 0 0 0 0 0 0 0 0 0 0 0 0 0 0 0 0 -0 -0 -0 0 0 0 0 0 0 0 0 0
0 0 0 -0 0 0 0 0 0 0 0 0 0 0 0 0 0 0 0 0 0 0 0 0 -0 -0 -0 -0 0 -0 -0 -0 -0 -0 -0 -0 0 -0
Wind_Speed_500mb
25 27 26 26 26 23 18 18 18 21 25 17 23 23 24 24 25 24 27 28 29 32 32 33 34 34 34 38 40 40 39 39 41 39 39 38 42 45
23 26 26 26 23 24 22 18 17 16 18 22 21 23 28 26 28 31 34 37 37 37 37 37 36 35 34 33 35 36 37 34 34 33 34 34 32 32
35 34 35 32 25 23 21 18 18 19 22 25 28 29 30 32 30 31 30 30 30 40 39 36 33 31 31 31 31 31 35 34 34 36 36 36 35 35
39 38 39 39 37 31 22 22 19 20 22 29 30 29 29 29 33 34 30 31 34 36 36 31 27 25 25 30 28 27 33 36 37 38 39 40 41 41
38 39 39 39 35 32 27 22 20 20 21 24 29 27 26 27 32 30 32 33 32 33 32 28 28 28 28 25 26 26 28 32 36 38 41 43 44 45
35 39 41 40 40 39 33 28 26 28 27 29 31 31 30 32 34 37 38 32 36 30 25 25 28 28 27 31 28 28 31 35 36 36 38 40 49 42
33 37 39 38 39 40 41 40 42 35 36 36 36 37 37 39 40 41 42 40 34 28 28 27 23 24 18 19 25 29 34 37 40 38 32 36 38 35
37 34 36 38 37 38 39 42 45 46 42 38 40 42 42 42 42 46 42 42 42 31 35 33 25 22 15 17 29 36 40 44 43 36 30 38 40 37
35 37 38 40 45 49 49 47 45 45 40 35 36 40 40 41 45 47 45 46 44 42 39 37 23 18 21 24 40 45 42 33 26 22 25 26 28 34
41 43 45 47 51 56 56 46 40 33 33 30 28 35 37 46 45 47 50 48 37 38 32 26 23 23 22 24 32 19 15 13 17 18 26 31 39 44
41 44 48 51 53 53 48 43 38 31 32 35 40 49 56 56 55 56 42 36 42 38 28 27 20 30 21 20 20 24 18 16 20 26 34 41 43 45
36 39 44 49 52 54 54 43 41 41 45 48 43 41 41 38 44 35 30 37 38 35 22 32 24 24 20 14 23 26 15 22 31 32 33 30 38 42
37 40 40 52 54 53 54 46 49 52 45 39 39 39 36 33 38 32 29 30 32 35 30 26 30 27 20 32 34 24 18 30 34 35 27 32 29 28
33 38 43 51 58 54 56 53 47 45 36 39 38 49 36 34 33 36 25 29 28 29 31 26 32 22 24 34 35 28 30 35 32 25 29 22 22 20
36 43 48 54 61 55 64 62 48 40 38 39 43 48 38 35 30 32 27 25 21 23 21 12 19 22 30 32 30 28 36 36 15 23 25 20 19 18
39 38 45 51 53 57 58 53 47 42 40 42 50 49 40 33 28 28 26 23 21 18 15 17 20 28 26 24 24 27 26 27 23 21 20 17 19 19
45 34 41 47 55 62 64 59 52 48 45 45 50 45 33 32 28 24 23 22 19 21 19 21 23 21 19 20 22 22 27 18 17 19 19 17 16 17
34 36 41 47 54 61 65 64 56 55 60 53 45 34 29 29 30 23 20 16 20 20 20 28 22 21 19 19 14 21 15 16 13 17 17 15 12 13
33 36 43 45 52 60 64 60 60 63 51 48 40 33 28 26 26 22 19 21 21 20 25 21 20 19 19 17 13 16 18 19 15 10 10 21 21 17
36 36 42 46 50 58 61 57 73 55 50 47 38 33 28 27 25 23 22 22 20 22 21 19 18 15 14 13 15 17 20 23 26 27 9 9 17 20
38 34 34 45 48 56 57 53 65 56 48 47 41 33 27 27 26 23 22 20 19 20 23 21 17 13 13 14 13 17 20 17 21 22 23 19 12 18
38 32 31 40 50 53 53 56 61 58 49 46 41 33 32 28 24 23 21 21 20 21 18 13 16 17 16 18 18 21 20 23 19 19 22 25 14 14
25 30 34 40 47 51 50 61 56 52 47 47 44 38 28 28 26 22 19 21 23 22 17 19 19 18 18 19 16 17 19 19 17 16 20 25 21 17
Wind_Direction_500mb
23 22 19 13 10 5 356 346 336 323 323 327 331 322 334 330 326 330 325 323 321 318 313 303 288 283 282 272 263 263 263 257 256 258 264 266 266 265
20 13 9 7 6 10 14 10 8 355 332 330 332 331 334 332 323 323 321 320 317 317 313 305 297 285 277 272 266 257 254 251 253 260 267 267 268 267
40 34 29 21 8 0 356 351 346 345 329 323 323 320 324 323 315 319 323 322 319 318 319 308 300 289 273 271 265 255 247 253 262 264 264 265 264 266
32 28 25 23 21 14 1 356 349 338 329 323 319 323 322 323 323 322 317 317 314 312 311 307 306 300 284 270 269 251 250 254 257 260 265 268 267 265
12 8 6 5 5 6 5 357 349 345 340 335 335 334 333 334 332 330 323 320 319 314 314 306 291 290 284 280 263 256 260 265 269 270 270 266 263 262
1 358 355 353 351 347 342 337 327 328 325 330 331 331 332 332 334 329 324 325 322 319 316 314 306 282 276 268 265 261 266 270 276 278 269 259 265 252
357 354 354 350 345 341 336 327 318 315 317 316 319 321 325 327 330 330 323 322 324 319 318 317 309 291 276 256 258 263 270 278 283 284 264 261 263 268
347 348 347 344 339 337 335 333 327 316 301 302 309 316 317 321 322 322 321 321 319 318 317 313 304 292 281 276 277 283 284 289 285 277 264 258 256 264
352 348 348 344 341 338 334 331 328 321 312 302 298 307 309 314 317 318 314 310 309 311 308 312 294 294 300 297 297 295 293 283 273 268 262 264 272 273
357 354 351 345 338 334 333 331 331 326 318 312 307 306 308 309 310 311 308 306 305 310 302 293 300 296 301 305 309 297 290 278 265 269 280 282 284 284
359 354 347 343 341 341 341 337 336 329 323 307 302 305 306 305 299 306 302 296 301 309 303 284 300 316 320 302 298 300 298 288 286 289 287 286 284 285
360 356 352 355 350 348 345 338 332 326 324 317 314 309 308 308 310 313 302 303 306 312 307 315 307 315 319 309 321 314 293 301 310 308 304 295 292 290
355 356 354 358 354 351 349 341 332 327 325 325 324 320 313 308 315 316 304 299 298 295 297 306 308 296 307 315 320 320 295 316 315 315 304 304 300 294
350 352 356 359 0 359 356 347 339 339 329 330 325 330 330 322 312 324 311 299 300 300 293 292 290 303 297 311 315 315 312 320 316 306 313 315 316 303
343 347 352 355 357 355 352 353 352 339 333 330 332 336 332 323 319 327 319 319 309 308 302 304 313 297 301 302 301 303 310 322 317 318 324 322 335 333
341 339 346 352 353 352 351 348 344 338 332 325 334 336 333 333 328 331 327 330 331 334 329 305 292 303 312 307 299 304 315 322 319 321 328 322 330 336
340 339 342 347 349 350 350 348 345 340 336 328 329 337 334 336 332 333 336 332 333 330 325 318 321 313 310 307 313 313 323 329 330 328 328 321 321 339
339 337 340 344 347 348 348 345 344 340 344 344 343 342 340 339 337 341 336 344 340 337 330 332 339 343 348 340 333 331 341 337 331 353 1 4 350 339
331 337 341 341 344 346 346 345 341 350 355 354 353 353 349 346 345 347 349 351 346 342 337 341 344 348 350 352 7 10 23 13 0 318 12 26 11 4
331 331 341 342 342 344 345 344 346 356 360 359 359 359 358 356 1 358 356 350 349 345 358 356 353 349 358 6 26 49 51 47 41 34 11 346 33 24
335 332 334 343 344 345 345 345 353 2 3 6 5 1 4 358 352 356 2 1 359 360 355 355 1 43 69 70 45 26 23 19 32 25 28 24 353 13
336 338 337 345 347 346 346 348 356 4 6 5 9 9 8 8 7 7 17 24 4 1 0 29 66 75 66 45 35 21 25 37 44 41 31 22 10 2
350 343 341 346 347 348 347 351 359 1 8 12 12 16 17 15 5 7 13 28 31 35 58 71 59 43 40 35 19 28 22 20 30 9 18 14 19 16
Wind_Speed_850mb
25 27 26 26 26 23 18 18 18 21 25 17 23 23 24 24 25 24 27 28 29 32 32 33 34 34 34 38 40 40 39 39 41 39 39 38 42 45
23 26 26 26 23 24 22 18 17 16 18 22 21 23 28 26 28 31 34 37 37 37 37 37 36 35 34 33 35 36 37 34 34 33 34 34 32 32
35 34 35 32 25 23 21 18 18 19 22 25 28 29 30 32 30 31 30 30 30 40 39 36 33 31 31 31 31 31 35 34 34 36 36 36 35 35
39 38 39 39 37 31 22 22 19 20 22 29 30 29 29 29 33 34 30 31 34 36 36 31 27 25 25 30 28 27 33 36 37 38 39 40 41 41
38 39 39 39 35 32 27 22 20 20 21 24 29 27 26 27 32 30 32 33 32 33 32 28 28 28 28 25 26 26 28 32 36 38 41 43 44 45
35 39 41 40 40 39 33 28 26 28 27 29 31 31 30 32 34 37 38 32 36 30 25 25 28 28 27 31 28 28 31 35 36 36 38 40 49 42
33 37 39 38 39 40 41 40 42 35 36 36 36 37 37 39 40 41 42 40 34 28 28 27 23 24 18 19 25 29 34 37 40 38 32 36 38 35
37 34 36 38 37 38 39 42 45 46 42 38 40 42 42 42 42 46 42 42 42 31 35 33 25 22 15 17 29 36 40 44 43 36 30 38 40 37
35 37 38 40 45 49 49 47 45 45 40 35 36 40 40 41 45 47 45 46 44 42 39 37 23 18 21 24 40 45 42 33 26 22 25 26 28 34
41 43 45 47 51 56 56 46 40 33 33 30 28 35 37 46 45 47 50 48 37 38 32 26 23 23 22 24 32 19 15 13 17 18 26 31 39 44
41 44 48 51 53 53 48 43 38 31 32 35 40 49 56 56 55 56 42 36 42 38 28 27 20 30 21 20 20 24 18 16 20 26 34 41 43 45
36 39 44 49 52 54 54 43 41 41 45 48 43 41 41 38 44 35 30 37 38 35 22 32 24 24 20 14 23 26 15 22 31 32 33 30 38 42
37 40 40 52 54 53 54 46 49 52 45 39 39 39 36 33 38 32 29 30 32 35 30 26 30 27 20 32 34 24 18 30 34 35 27 32 29 28
33 38 43 51 58 54 56 53 47 45 36 39 38 49 36 34 33 36 25 29 28 29 31 26 32 22 24 34 35 28 30 35 32 25 29 22 22 20
36 43 48 54 61 55 64 62 48 40 38 39 43 48 38 35 30 32 27 25 21 23 21 12 19 22 30 32 30 28 36 36 15 23 25 20 19 18
39 38 45 51 53 57 58 53 47 42 40 42 50 49 40 33 28 28 26 23 21 18 15 17 20 28 26 24 24 27 26 27 23 21 20 17 19 19
45 34 41 47 55 62 64 59 52 48 45 45 50 45 33 32 28 24 23 22 19 21 19 21 23 21 19 20 22 22 27 18 17 19 19 17 16 17
34 36 41 47 54 61 65 64 56 55 60 53 45 34 29 29 30 23 20 16 20 20 20 28 22 21 19 19 14 21 15 16 13 17 17 15 12 13
33 36 43 45 52 60 64 60 60 63 51 48 40 33 28 26 26 22 19 21 21 20 25 21 20 19 19 17 13 16 18 19 15 10 10 21 21 17
36 36 42 46 50 58 61 57 73 55 50 47 38 33 28 27 25 23 22 22 20 22 21 19 18 15 14 13 15 17 20 23 26 27 9 9 17 20
38 34 34 45 48 56 57 53 65 56 48 47 41 33 27 27 26 23 22 20 19 20 23 21 17 13 13 14 13 17 20 17 21 22 23 19 12 18
38 32 31 40 50 53 53 56 61 58 49 46 41 33 32 28 24 23 21 21 20 21 18 13 16 17 16 18 18 21 20 23 19 19 22 25 14 14
25 30 34 40 47 51 50 61 56 52 47 47 44 38 28 28 26 22 19 21 23 22 17 19 19 18 18 19 16 17 19 19 17 16 20 25 21 17
Wind_Direction_850mb
23 22 19 13 10 5 356 346 336 323 323 327 331 322 334 330 326 330 325 323 321 318 313 303 288 283 282 272 263 263 263 257 256 258 264 266 266 265
20 13 9 7 6 10 14 10 8 355 332 330 332 331 334 332 323 323 321 320 317 317 313 305 297 285 277 272 266 257 254 251 253 260 267 267 268 267
40 34 29 21 8 0 356 351 346 345 329 323 323 320 324 323 315 319 323 322 319 318 319 308 300 289 273 271 265 255 247 253 262 264 264 265 264 266
32 28 25 23 21 14 1 356 349 338 329 323 319 323 322 323 323 322 317 317 314 312 311 307 306 300 284 270 269 251 250 254 257 260 265 268 267 265
12 8 6 5 5 6 5 357 349 345 340 335 335 334 333 334 332 330 323 320 319 314 314 306 291 290 284 280 263 256 260 265 269 270 270 266 263 262
1 358 355 353 351 347 342 337 327 328 325 330 331 331 332 332 334 329 324 325 322 319 316 314 306 282 276 268 265 261 266 270 276 278 269 259 265 252
357 354 354 350 345 341 336 327 318 315 317 316 319 321 325 327 330 330 323 322 324 319 318 317 309 291 276 256 258 263 270 278 283 284 264 261 263 268
347 348 347 344 339 337 335 333 327 316 301 302 309 316 317 321 322 322 321 321 319 318 317 313 304 292 281 276 277 283 284 289 285 277 264 258 256 264
352 348 348 344 341 338 334 331 328 321 312 302 298 307 309 314 317 318 314 310 309 311 308 312 294 294 300 297 297 295 293 283 273 268 262 264 272 273
357 354 351 345 338 334 333 331 331 326 318 312 307 306 308 309 310 311 308 306 305 310 302 293 300 296 301 305 309 297 290 278 265 269 280 282 284 284
359 354 347 343 341 341 341 337 336 329 323 307 302 305 306 305 299 306 302 296 301 309 303 284 300 316 320 302 298 300 298 288 286 289 287 286 284 285
360 356 352 355 350 348 345 338 332 326 324 317 314 309 308 308 310 313 302 303 306 312 307 315 307 315 319 309 321 314 293 301 310 308 304 295 292 290
355 356 354 358 354 351 349 341 332 327 325 325 324 320 313 308 315 316 304 299 298 295 297 306 308 296 307 315 320 320 295 316 315 315 304 304 300 294
350 352 356 359 0 359 356 347 339 339 329 330 325 330 330 322 312 324 311 299 300 300 293 292 290 303 297 311 315 315 312 320 316 306 313 315 316 303
343 347 352 355 357 355 352 353 352 339 333 330 332 336 332 323 319 327 319 319 309 308 302 304 313 297 301 302 301 303 310 322 317 318 324 322 335 333
341 339 346 352 353 352 351 348 344 338 332 325 334 336 333 333 328 331 327 330 331 334 329 305 292 303 312 307 299 304 315 322 319 321 328 322 330 336
340 339 342 347 349 350 350 348 345 340 336 328 329 337 334 336 332 333 336 332 333 330 325 318 321 313 310 307 313 313 323 329 330 328 328 321 321 339
339 337 340 344 347 348 348 345 344 340 344 344 343 342 340 339 337 341 336 344 340 337 330 332 339 343 348 340 333 331 341 337 331 353 1 4 350 339
331 337 341 341 344 346 346 345 341 350 355 354 353 353 349 346 345 347 349 351 346 342 337 341 344 348 350 352 7 10 23 13 0 318 12 26 11 4
331 331 341 342 342 344 345 344 346 356 360 359 359 359 358 356 1 358 356 350 349 345 358 356 353 349 358 6 26 49 51 47 41 34 11 346 33 24
335 332 334 343 344 345 345 345 353 2 3 6 5 1 4 358 352 356 2 1 359 360 355 355 1 43 69 70 45 26 23 19 32 25 28 24 353 13
336 338 337 345 347 346 346 348 356 4 6 5 9 9 8 8 7 7 17 24 4 1 0 29 66 75 66 45 35 21 25 37 44 41 31 22 10 2
350 343 341 346 347 348 347 351 359 1 8 12 12 16 17 15 5 7 13 28 31 35 58 71 59 43 40 35 19 28 22 20 30 9 18 14 19 16